[[{"header":{"parameterUnit":"m.s-1","parameterCategory":1,"la1":30.2991,"la2":30.254,"lo1":-89.0895,"lo2":-89.0444,"dy":0.0017,"dx":0.0017,"nx":28,"ny":28,"refTime":"2025-04-17T09:00:00:Z","depth":0,"parameterNumber":2,"parameterNumberName":"U-component_of_WINDS"},"data":[0,0,0,0,0,0,0,0,0,0,0,0,0,0,0,0,0,0,0,0,0,0,0,0,0,0,0,0,0,0,0,0,0,0,0,0,0,0,0,0,0,0,0,0,0,0,0,0,0,0,0,0,0,0,0,0,0,0,-2.9426,-2.9427,0,-2.9526,-2.9527,-2.9529,-2.9538,-2.9537,-2.9536,-2.9535,-2.9638,-2.9642,-2.9646,0,0,0,0,0,0,0,0,0,0,0,0,0,-2.9243,-2.9247,-2.9426,-2.9427,-2.9428,-2.9526,-2.9527,-2.9529,-2.9538,-2.9537,-2.9536,-2.9534,-2.9637,-2.9642,-2.9646,0,0,0,0,0,0,0,0,0,0,0,0,0,-2.9331,-2.9248,-2.9426,-2.9445,-2.9447,-2.9526,-2.9528,-2.9529,-2.9538,-2.9537,-2.9535,-2.9534,-2.9636,-2.9641,-2.9647,-2.9713,0,0,-2.9664,-2.9666,0,0,0,0,0,0,0,0,-2.9326,-2.9338,-2.9441,-2.9444,-2.9447,-2.9518,-2.9501,-2.9591,-2.9539,-2.9504,-2.9535,-2.9533,-2.96,-2.9608,-2.9631,-2.9718,-2.9723,-2.9664,-2.9668,-2.967,-2.9672,0,0,0,0,0,0,0,-2.932,-2.9334,-2.9466,-2.9442,-2.9446,-2.9449,-2.9459,-2.9518,-2.956,-2.9507,-2.9508,-2.9519,-2.9601,-2.9625,-2.9633,-2.9724,-2.9664,-2.9669,-2.9673,-2.9675,-2.9872,-2.9873,0,0,0,0,0,0,-2.931,-2.9328,-2.9462,-2.9469,-2.9381,-2.9453,-2.9465,-2.9497,-2.9559,-2.9567,-2.9521,-2.9519,-2.9616,-2.9626,-2.9637,-2.9718,-2.967,-2.9676,-2.9679,-2.987,-2.9872,-2.9874,0,0,0,0,0,0,-2.9306,-2.9322,-2.9458,-2.9399,-2.9416,-2.9458,-2.9493,-2.9499,-2.9523,-2.9569,-2.9577,-2.9537,-2.9615,-2.9629,-2.9694,-2.9722,-2.9678,-2.9683,-2.9868,-2.987,-2.9873,-2.9882,0,0,0,0,0,0,-2.9301,-2.9321,-2.9346,-2.9399,-2.942,-2.9514,-2.9495,-2.9503,-2.9533,-2.9532,-2.9587,-2.9595,-2.9615,-2.9686,-2.97,-2.9729,-2.9688,-2.9865,-2.9869,-2.9872,-2.988,-2.9885,-2.989,0,0,0,0,0,-2.9294,-2.9345,-2.9347,-2.9363,-2.9452,-2.9515,-2.9527,-2.9549,-2.9535,-2.9561,-2.9591,-2.9593,-2.9717,-2.9692,-2.9708,-2.974,-2.9863,-2.9868,-2.9872,-2.9877,-2.9884,-2.989,0,0,0,0,0,0,-2.9294,-2.9352,-2.9355,-2.9424,-2.9465,-2.9517,-2.955,-2.9555,-2.9601,-2.9598,-2.9624,-2.9637,-2.9701,-2.9727,-2.9699,-2.9807,-2.9789,-2.9796,-2.9788,-2.9794,-2.9799,-2.9791,-2.9692,0,0,0,0,0,-2.9302,-2.9348,-2.9396,-2.9453,-2.9473,-2.9508,-2.9536,-2.955,-2.9593,-2.961,-2.9645,-2.9687,-2.9735,-2.9766,-2.9814,-2.9884,-2.9896,-2.9914,-2.9919,-2.9922,-2.9928,-2.9968,-2.9976,-2.9888,-2.9888,-2.9888,0,0,-2.9318,-2.9356,-2.9384,-2.9454,-2.9486,-2.9534,-2.9522,-2.9573,-2.9609,-2.9618,-2.9682,-2.9708,-2.9757,-2.9825,-2.9857,-2.9849,-2.9956,-2.9928,-2.993,-2.9934,-2.9973,-2.9981,-2.9988,-2.989,-2.989,-2.9889,0,0,-2.9373,-2.9406,-2.9456,-2.949,-2.954,-2.9563,-2.9575,-2.9626,-2.9644,-2.9709,-2.9717,-2.976,-2.9843,-2.9877,-2.9905,-2.9974,-2.9977,-2.9988,-3.0014,-3.0052,-3.0059,-3.0065,-3.0089,-3.0097,-2.9994,-2.9994,-2.9994,0,-2.9387,-2.9459,-2.9482,-2.9532,-2.9563,-2.9574,-2.9625,-2.9656,-2.9719,-2.974,-2.9731,-2.9835,-2.9869,-2.9945,-2.9961,-2.9984,-2.9999,-2.9982,-3.0056,-3.0063,-3.0069,-3.0092,-3.0101,-2.9995,-2.9995,-2.9995,-2.9995,0,-2.9474,-2.9524,-2.9558,-2.9618,-2.9653,-2.9704,-2.9735,-2.9767,-2.9778,-2.9803,-2.9868,-2.9909,-2.9964,-2.9984,-2.9995,-3.0062,-3.0055,-3.0051,-3.0032,-3.0078,-3.01,-3.0109,-2.9997,-2.9996,-2.9996,-2.9996,0,0,-2.953,-2.9602,-2.9615,-2.9642,-2.9698,-2.9737,-2.9789,-2.9843,-2.987,-2.9913,-2.9957,-3.0027,-3.0023,-3.0056,-3.0071,-3.0104,-3.0156,-3.0096,-3.0097,-3.0105,-3.0231,-3.0234,-3.0244,-3.0159,-3.0161,-3.0162,-3.0227,0,-2.9591,-2.9682,-2.9704,-2.9782,-2.9828,-2.984,-2.9885,-2.9924,-2.9948,-2.9991,-3.0019,-3.0068,-3.0059,-3.0078,-3.0112,-3.0142,-3.0181,-3.0138,-3.02,-3.0202,-3.0186,-3.0255,-3.0258,-3.0317,-3.0236,-3.0237,-3.0238,0,-2.9673,-2.9718,-2.98,-2.985,-2.987,-2.991,-2.9962,-3.0003,-3.0048,-3.0063,-3.0099,-3.0112,-3.0166,-3.0146,-3.0221,-3.0191,-3.0218,-3.0237,-3.024,-3.0246,-3.0222,-3.0262,-3.0337,-3.0346,-3.0252,-3.0251,-3.025,0,-2.9705,-2.9786,-2.9846,-2.9869,-2.9929,-2.9957,-2.9983,-3.0027,-3.0058,-3.0103,-3.0124,-3.0175,-3.0203,-3.0242,-3.0268,-3.0251,-3.0342,-3.0324,-3.0356,-3.0355,-3.0374,-3.0372,-3.0453,-3.0392,-3.0392,-3.0392,-3.0392,0,-2.977,-2.982,-2.9861,-2.9897,-2.9954,-2.9979,-3.0035,-3.0061,-3.01,-3.0143,-3.0156,-3.0196,-3.0228,-3.0272,-3.0293,-3.0353,-3.0365,-3.0379,-3.0384,-3.0378,-3.0376,-3.0395,-3.0391,-3.0395,-3.0394,-3.0394,-3.0393,0,-2.9815,-2.9844,-2.991,-2.9961,-2.9976,-3.0015,-3.0059,-3.0095,-3.012,-3.0174,-3.0188,-3.0227,-3.028,-3.031,-3.0377,-3.0391,-3.0457,-3.046,-3.0441,-3.0443,-3.0473,-3.047,-3.0569,-3.0583,-3.0513,-3.0514,-3.0515,0,-2.9853,-2.9892,-2.9948,-2.9977,-3.0003,-3.005,-3.0082,-3.0109,-3.0142,-3.0196,-3.0226,-3.028,-3.0324,-3.0408,-3.0442,-3.0494,-3.0498,-3.0529,-3.0505,-3.0498,-3.0498,-3.0495,-3.0499,-3.0533,-3.0533,-3.0534,-3.0534,0,-2.9919,-2.9932,-2.9977,-3.0027,-3.0064,-3.0105,-3.0146,-3.0169,-3.0203,-3.0239,-3.0293,-3.0327,-3.0395,-3.0448,-3.0502,-3.053,-3.0538,-3.0541,-3.0551,-3.0545,-3.0532,-3.0539,-3.0451,-3.0539,-3.0538,-3.0538,-3.0538,-3.0537,-2.9962,-2.9997,-3.0041,-3.0091,-3.0124,-3.0162,-3.0199,-3.0228,-3.0273,-3.033,-3.0344,-3.04,-3.0445,-3.0518,-3.0548,-3.0593,-3.0587,-3.0602,-3.0606,-3.0609,-3.0609,-3.0525,-3.0603,-3.0603,-3.0603,-3.0603,-3.0603,0,-3.0028,-3.0058,-3.0103,-3.0159,-3.0198,-3.0202,-3.0247,-3.028,-3.0329,-3.037,-3.0413,-3.0475,-3.0527,-3.0566,-3.0619,-3.0647,-3.0652,-3.066,-3.0658,-3.0664,-3.0612,-3.0597,-3.0655,-3.0655,-3.0655,-3.0655,-3.0655,-3.0655,-3.0067,-3.0126,-3.0144,-3.022,-3.0249,-3.0304,-3.0329,-3.0364,-3.0397,-3.0465,-3.0508,-3.0533,-3.0573,-3.0629,-3.0677,-3.0687,-3.0706,-3.0713,-3.0724,-3.0674,-3.0668,-3.0663,-3.0649,-3.0717,-3.0717,-3.0773,-3.0774,-3.0774]},{"header":{"parameterUnit":"m.s-1","parameterCategory":1,"la1":30.2991,"la2":30.254,"lo1":-89.0895,"lo2":-89.0444,"dy":0.0017,"dx":0.0017,"nx":28,"ny":28,"refTime":"2025-04-17T09:00:00:Z","depth":0,"parameterNumber":3,"parameterNumberName":"V-component_of_WINDS"},"data":[0,0,0,0,0,0,0,0,0,0,0,0,0,0,0,0,0,0,0,0,0,0,0,0,0,0,0,0,0,0,0,0,0,0,0,0,0,0,0,0,0,0,0,0,0,0,0,0,0,0,0,0,0,0,0,0,0,0,4.5742,4.5742,0,4.5786,4.5787,4.5787,4.5745,4.5743,4.5742,4.574,4.578,4.5783,4.5785,0,0,0,0,0,0,0,0,0,0,0,0,0,4.5614,4.5617,4.5742,4.5742,4.5743,4.5786,4.5787,4.5787,4.5745,4.5743,4.5741,4.5739,4.5779,4.5782,4.5785,0,0,0,0,0,0,0,0,0,0,0,0,0,4.5665,4.5618,4.5741,4.5727,4.5726,4.5786,4.5787,4.5788,4.5746,4.5743,4.5741,4.5738,4.5778,4.5782,4.5786,4.586,0,0,4.5798,4.58,0,0,0,0,0,0,0,0,4.5662,4.567,4.5729,4.5728,4.5727,4.5758,4.5757,4.5812,4.5746,4.5738,4.574,4.5737,4.5774,4.5778,4.5792,4.5862,4.5864,4.5798,4.5801,4.5802,4.5803,0,0,0,0,0,0,0,4.5659,4.5668,4.5759,4.5729,4.5729,4.5717,4.5721,4.5767,4.5769,4.5739,4.5736,4.5742,4.5773,4.5788,4.5793,4.5864,4.5798,4.5802,4.5804,4.5806,4.5998,4.6001,0,0,0,0,0,0,4.5658,4.5665,4.5758,4.576,4.5688,4.5721,4.5726,4.575,4.5769,4.5769,4.5744,4.574,4.5783,4.5788,4.5794,4.5882,4.5802,4.5806,4.5808,4.5995,4.5999,4.6002,0,0,0,0,0,0,4.5655,4.5667,4.5756,4.5712,4.5723,4.5726,4.5754,4.5753,4.5767,4.5773,4.5773,4.5759,4.5781,4.5788,4.5845,4.5883,4.5808,4.5811,4.5992,4.5996,4.6,4.606,0,0,0,0,0,0,4.5652,4.5666,4.5695,4.5713,4.5725,4.5807,4.5756,4.5755,4.5775,4.577,4.5787,4.5788,4.578,4.5839,4.5849,4.5887,4.5814,4.5989,4.5994,4.5999,4.6055,4.6066,4.6075,0,0,0,0,0,4.5647,4.5709,4.5697,4.5708,4.5762,4.581,4.5816,4.5808,4.5778,4.5807,4.5811,4.5787,4.5878,4.5845,4.5855,4.5896,4.5986,4.5992,4.5998,4.605,4.6064,4.6075,0,0,0,0,0,0,4.5693,4.5711,4.5698,4.5767,4.5788,4.5803,4.5839,4.5822,4.5849,4.5843,4.583,4.5834,4.5893,4.59,4.5864,4.5969,4.5927,4.5935,4.5962,4.5975,4.5986,4.5982,4.5818,0,0,0,0,0,4.5712,4.5751,4.5763,4.5823,4.5834,4.5835,4.5855,4.5847,4.5867,4.5874,4.5882,4.59,4.5933,4.5955,4.5985,4.6056,4.6058,4.6089,4.6099,4.6107,4.6115,4.6153,4.6166,4.6022,4.6022,4.6022,0,0,4.5749,4.5764,4.5789,4.5833,4.5848,4.5887,4.5842,4.5885,4.5914,4.588,4.5934,4.5941,4.596,4.6024,4.6053,4.6032,4.6155,4.6115,4.6122,4.6125,4.616,4.6174,4.6186,4.6026,4.6025,4.6025,0,0,4.5838,4.5854,4.5906,4.5922,4.5946,4.5946,4.5959,4.5977,4.5981,4.6035,4.6011,4.6044,4.61,4.6116,4.6131,4.6227,4.6206,4.6237,4.6291,4.6328,4.6339,4.6349,4.6383,4.6396,4.6245,4.6245,4.6245,0,4.5882,4.5942,4.5934,4.598,4.5999,4.5974,4.6025,4.6041,4.6072,4.6086,4.6062,4.6134,4.6145,4.6212,4.6236,4.6249,4.6262,4.6235,4.6339,4.6348,4.6357,4.639,4.6403,4.6248,4.6248,4.6248,4.6247,0,4.5994,4.6036,4.6075,4.6109,4.6133,4.6181,4.6179,4.6204,4.6194,4.6197,4.6252,4.6265,4.6298,4.6313,4.6303,4.638,4.6366,4.6341,4.6298,4.6375,4.6405,4.6418,4.6254,4.6252,4.6251,4.625,0,0,4.6111,4.6142,4.6157,4.6172,4.6197,4.6228,4.6275,4.6309,4.6331,4.6354,4.6392,4.6441,4.6419,4.6436,4.6427,4.646,4.6535,4.6431,4.6431,4.6449,4.662,4.6639,4.6653,4.6522,4.6524,4.6526,4.6618,0,4.6201,4.6285,4.628,4.6358,4.6396,4.6373,4.6414,4.6433,4.6437,4.6468,4.6471,4.6506,4.6474,4.6484,4.6516,4.652,4.6569,4.6513,4.6556,4.6558,4.6552,4.6669,4.6688,4.6775,4.663,4.6632,4.6634,0,4.6317,4.6347,4.6429,4.645,4.6466,4.6503,4.6534,4.6565,4.6586,4.6586,4.6606,4.6592,4.6638,4.6596,4.6658,4.662,4.6637,4.6642,4.6645,4.6648,4.66,4.6675,4.6802,4.6815,4.6652,4.6651,4.6649,0,4.6394,4.6455,4.6512,4.6526,4.6551,4.6578,4.6589,4.6608,4.6629,4.6656,4.6669,4.67,4.6717,4.6741,4.6735,4.6704,4.6799,4.6755,4.6799,4.68,4.6819,4.6818,4.6951,4.6832,4.6832,4.6831,4.6831,0,4.6495,4.6546,4.6548,4.6583,4.6639,4.6633,4.6688,4.6696,4.6713,4.6749,4.6729,4.6762,4.6754,4.6786,4.6782,4.6834,4.6842,4.6842,4.684,4.6844,4.6844,4.6854,4.6848,4.6835,4.6834,4.6833,4.6833,0,4.659,4.6594,4.6655,4.6675,4.6681,4.6722,4.6737,4.677,4.6773,4.6818,4.6828,4.6831,4.6869,4.6866,4.6907,4.6904,4.6969,4.696,4.6963,4.6961,4.7005,4.7,4.7148,4.7167,4.7036,4.7038,4.7039,0,4.6654,4.6694,4.6719,4.6742,4.6756,4.6794,4.6816,4.6811,4.6834,4.6862,4.6891,4.6927,4.6955,4.7016,4.7021,4.7052,4.7044,4.7093,4.7048,4.7051,4.7044,4.7042,4.7045,4.7102,4.7103,4.7105,4.7106,0,4.6767,4.6767,4.6801,4.6836,4.6864,4.6891,4.6915,4.6935,4.6932,4.6959,4.6998,4.7021,4.7064,4.71,4.713,4.714,4.7122,4.712,4.7132,4.7136,4.7135,4.7136,4.6987,4.7117,4.7115,4.7115,4.7114,4.7114,4.6848,4.6882,4.6906,4.6945,4.6963,4.6987,4.7019,4.7027,4.706,4.7096,4.7091,4.7135,4.7154,4.7194,4.7206,4.7239,4.7221,4.7238,4.7242,4.7247,4.7252,4.7131,4.7245,4.7244,4.7244,4.7244,4.7244,0,4.696,4.6974,4.701,4.7046,4.7077,4.706,4.7087,4.7112,4.7152,4.7173,4.7202,4.7247,4.7282,4.7291,4.7324,4.7349,4.7341,4.7357,4.7355,4.7358,4.7266,4.7253,4.7363,4.7363,4.7363,4.7363,4.7363,4.7363,4.7021,4.7079,4.7082,4.7148,4.7161,4.7206,4.7222,4.7244,4.7261,4.7313,4.7342,4.7349,4.7365,4.7399,4.743,4.7431,4.7444,4.7463,4.7462,4.7376,4.7364,4.7352,4.734,4.7466,4.7466,4.755,4.7551,4.7552]}]]